This is the latest recevied weather packets stored in our database for station/object KB3AWQ. If no packets are shown the sender has not sent any weather packets the latest 10 day(s).
| Time | Temp. | Humidity | Pressure | Rain* | Wind** | Luminosity | Snow |
|---|---|---|---|---|---|---|---|
| 1787860467 | 31.11° C | 64% | 1013.3 hPa | 0 mm | - | 257 W/m² | - |
| 1787860167 | 31.11° C | 64% | 1013.3 hPa | 0 mm | - | 220 W/m² | - |
| 1787859866 | 30.56° C | 64% | 1013.3 hPa | 0 mm | - | 623 W/m² | - |
| 1787859566 | 30.56° C | 63% | 1013.2 hPa | 0 mm | - | 649 W/m² | - |
| 1787859267 | 31.11° C | 65% | 1013.3 hPa | 0 mm | - | 665 W/m² | - |
| 1787858967 | 30.56° C | 62% | 1013.5 hPa | 0 mm | - | 556 W/m² | - |
| 1787858667 | 30.56° C | 62% | 1013.7 hPa | 0 mm | - | 693 W/m² | - |
| 1787858367 | 30° C | 65% | 1013.5 hPa | 0 mm | - | 688 W/m² | - |
| 1787858066 | 30° C | 68% | 1013.4 hPa | 0 mm | - | 693 W/m² | - |
| 1787857766 | 30.56° C | 60% | 1013.5 hPa | 0 mm | - | 698 W/m² | - |
| 1787857466 | 30° C | 66% | 1013.7 hPa | 0 mm | - | 710 W/m² | - |
| 1787857166 | 30° C | 68% | 1013.9 hPa | 0 mm | - | 741 W/m² | - |
| 1787856866 | 30° C | 69% | 1014 hPa | 0 mm | - | 778 W/m² | - |
| 1787856566 | 30° C | 67% | 1014 hPa | 0 mm | - | 751 W/m² | - |
| 1787856268 | 29.44° C | 70% | 1013.9 hPa | 0 mm | - | 764 W/m² | - |
| 1787855967 | 29.44° C | 68% | 1014 hPa | 0 mm | - | 745 W/m² | - |
| 1787855668 | 29.44° C | 67% | 1014 hPa | 0 mm | - | 757 W/m² | - |
| 1787855366 | 29.44° C | 69% | 1014.1 hPa | 0 mm | - | 802 W/m² | - |
| 1787855067 | 29.44° C | 69% | 1014 hPa | 0 mm | - | 506 W/m² | - |
| 1787854767 | 29.44° C | 70% | 1014.1 hPa | 0 mm | - | 732 W/m² | - |
| 1787854467 | 29.44° C | 67% | 1014.3 hPa | 0 mm | - | 481 W/m² | - |
| 1787854166 | 29.44° C | 69% | 1014.3 hPa | 0 mm | - | 804 W/m² | - |
| 1787853867 | 29.44° C | 69% | 1014.4 hPa | 0 mm | - | 819 W/m² | - |
| 1787853566 | 29.44° C | 68% | 1014.5 hPa | 0 mm | - | 699 W/m² | - |
| 1787853266 | 28.89° C | 68% | 1014.5 hPa | 0 mm | - | 707 W/m² | - |
* Rain latest hour (hover to see other rain measurements)
** Current wind speed in m/s (hover to see current wind gust speed)